Home > Time Zones > World Clock > Weather > Peru > Callao > Past weeks

Flag for Peru Weather past 2 weeks in Callao, Callao, Peru

Now
61 °F

Overcast.


Feels Like: 61 °F
Forecast: 60 / 68 °F
Wind: 2 mph from North

Location: Lima-Callao / Aerop. Internacional Jorgechavez

Current Time: Aug 1, 2014 at 7:54:08 PM

Latest Report: Aug 1, 2014 at 7:00 PM


Visibility: N/A

Pressure: 29.95 "Hg

Humidity: 83%

Dew point: 55 °F

Location of CallaoLocation

Historic Weather in Callao — Graph

°F

Callao temperature yesterday

Maximum temperature yesterday: 63 °F (at 12:00 PM)
Minimum temperature yesterday: 59 °F (at 2:00 AM)
Average temperature yesterday: 60 °F

Past Weeks' High & Low Weather Summary

 TemperatureHumidityPressure
High68 °F (Jul 21, 2:00 PM)100% (Jul 28, 6:00 AM)30.07 "Hg (Jul 28, 6:00 AM)
Low57 °F (Jul 28, 6:00 AM)69% (Jul 21, 2:00 PM)29.86 "Hg (Jul 21, 5:00 PM)
Average61 °F87%29.96 "Hg
* Reported Jul 17 6:00 PM — Aug 1 6:00 PM, Callao, Weather by CustomWeather, © 2014

Note: Actual official high and low records may vary slightly from our data, if they occured in-between our weather recording intervals... More about our weather records

Advertising

Callao weather history for previous 24 hours

 ConditionsComfort  
Time TempWeatherWind HumidityBarometerVisibility
6:00 PM
Aug 1
61 °FOvercast.3 mph83%29.95 "HgN/A
5:00 PM63 °FLow clouds.3 mph77%29.92 "HgN/A
4:00 PM63 °FLow clouds.3 mph77%29.92 "HgN/A
3:00 PM63 °FLow clouds.5 mph83%29.92 "HgN/A
2:00 PM63 °FLow clouds.10 mph77%29.95 "HgN/A
1:00 PM61 °FLow clouds.7 mph88%29.95 "HgN/A
12:00 PM61 °FMore clouds than sun.8 mph88%29.95 "HgN/A
11:00 AM61 °FMostly cloudy.7 mph83%29.98 "HgN/A
10:00 AM61 °FLow clouds.6 mph88%29.98 "HgN/A
9:00 AM61 °FLow clouds.5 mph88%29.98 "HgN/A
8:00 AM59 °FOvercast.No wind88%29.95 "HgN/A
7:00 AM59 °FOvercast.No wind88%29.92 "HgN/A
6:00 AM59 °FOvercast.2 mph88%29.92 "HgN/A
5:00 AM59 °FOvercast.2 mph88%29.89 "HgN/A
4:00 AM59 °FOvercast.3 mph88%29.89 "HgN/A
3:00 AM59 °FMostly cloudy.6 mph94%29.92 "HgN/A
2:00 AM59 °FLow clouds.5 mph94%29.92 "HgN/A
1:00 AM59 °FOvercast.6 mph94%29.92 "HgN/A
12:00 AM59 °FLow clouds.6 mph94%29.95 "Hg5 mi
11:00 PM
Jul 31
59 °FOvercast.5 mph94%29.95 "Hg6 mi
10:00 PM59 °FDrizzle. Mostly cloudy.2 mph94%29.95 "Hg6 mi
9:00 PM59 °FOvercast.3 mph94%29.95 "HgN/A
8:00 PM59 °FOvercast.3 mph94%29.95 "HgN/A
7:00 PM59 °FLow clouds.2 mph94%29.92 "Hg4 mi
Weather by CustomWeather, © 2014

See weather overviewHow to use our weather pages